Location: Saint-Denis
(20.8800°S, 55.4481°E)
Time: 20:22:14
(UTC+04:00)

BlueWalker 3 - Visible Passes

Search period start: 22 January 2026 00:00
Search period end: 01 February 2026 00:00
Orbit: 451 x 462 km, 53.2° (Epoch: 22 January)

Date Brightness Start Highest point End Pass type
(mag) Time Alt. Az. Time Alt. Az. Time Alt. Az.
22 Jan 4.3 04:15:41 12° NNE 04:17:08 15° ENE 04:19:14 10° E visible
23 Jan 2.5 05:15:57 13° WNW 05:18:55 38° SW 05:22:21 10° SSE visible
24 Jan 1.9 04:42:21 38° WNW 04:43:27 58° SW 04:47:04 10° SSE visible
25 Jan 2.2 04:08:39 59° SE 04:08:39 59° SE 04:11:40 10° SE visible
26 Jan 4.4 03:34:52 20° SE 03:34:52 20° SE 03:36:09 10° SE visible
27 Jan 4.2 04:34:44 12° SW 04:34:44 12° SW 04:36:10 10° SSW visible
28 Jan 4.4 04:00:46 13° SSW 04:00:46 13° SSW 04:01:30 10° S visible
